This demonstration page uses our WeatherBlox Daily Observations layout. Learn more.

Left ArrowRight Arrow

39.51506, -84.39828

Hourly Observations for June 26, 2017

Temp ( °F °C ) Dew Point ( °F °C ) Humidity (%) Winds ( mph kmh ) Pressure ( in mb ) Visibility ( mi km ) Precip ( " mm )
12:15 am 00:15 Clear 60 15.3 53 11.5 78 78 N N/A 30.15 1021 10 16 N/A
12:35 am 00:35 Clear 58 14.3 52 10.9 80 80 N N/A 30.15 1021 10 16 N/A
12:55 am 00:55 Partly Cloudy 60 15.3 53 11.6 79 79 N N/A 30.15 1021 10 16 N/A
1:15 am 01:15 Partly Cloudy 57 14.1 51 10.6 80 80 N N/A 30.15 1021 10 16 N/A
1:35 am 01:35 Partly Cloudy 57 14.1 52 10.9 81 81 N N/A 30.15 1021 10 16 N/A
1:55 am 01:55 Mostly Cloudy 59 14.8 53 11.4 80 80 N N/A 30.15 1021 10 16 N/A
2:15 am 02:15 Cloudy 60 15.3 53 11.7 79 79 N N/A 30.12 1020 10 16 N/A
2:35 am 02:35 Cloudy 60 15.3 52 11.1 76 76 SSW 3 6 30.15 1021 10 16 N/A
2:55 am 02:55 Mostly Cloudy 60 15.3 53 11.5 78 78 N N/A 30.15 1021 10 16 N/A
3:15 am 03:15 Mostly Cloudy 60 15.3 51 10.6 74 74 W 5 7 30.12 1020 10 16 N/A
3:35 am 03:35 Mostly Cloudy 60 15.6 50 9.8 69 69 W 6 9 30.12 1020 10 16 N/A
3:55 am 03:55 Partly Cloudy 60 15.3 49 9.6 69 69 W 6 9 30.12 1020 10 16 N/A
4:15 am 04:15 Clear 59 15.2 50 10.2 72 72 W 6 9 30.12 1020 10 16 N/A
4:35 am 04:35 Clear 60 15.3 50 10 71 71 W 7 11 30.12 1020 10 16 N/A
4:55 am 04:55 Clear 60 15.3 50 9.8 70 70 WNW 6 9 30.15 1021 10 16 N/A
5:15 am 05:15 Clear 58 14.3 48 8.8 70 70 W 6 9 30.15 1021 10 16 N/A
5:35 am 05:35 Clear 57 13.8 48 8.8 72 72 W 6 9 30.15 1021 10 16 N/A
5:55 am 05:55 Clear 57 13.8 48 9.1 73 73 W 6 9 30.15 1021 10 16 N/A
6:15 am 06:15 Sunny 57 13.8 48 9.1 73 73 W 6 9 30.15 1021 10 16 N/A
6:35 am 06:35 Sunny 57 13.8 49 9.2 74 74 W 6 9 30.15 1021 10 16 N/A
6:55 am 06:55 Sunny 57 13.8 48 9.1 73 73 W 5 7 30.15 1021 10 16 N/A
7:15 am 07:15 Sunny 60 15.3 50 9.8 70 70 W 6 9 30.15 1021 10 16 N/A
7:35 am 07:35 Sunny 60 15.3 49 9.3 68 68 W 7 11 30.15 1021 10 16 N/A
7:55 am 07:55 Sunny 61 16 49 9.6 66 66 W 5 7 30.15 1021 10 16 N/A
8:15 am 08:15 Sunny 62 16.6 50 9.9 65 65 W 7 11 30.15 1021 10 16 N/A
8:35 am 08:35 Sunny 63 17.3 50 9.8 62 62 WNW 9 15 30.12 1020 10 16 N/A
8:55 am 08:55 Sunny 64 18 50 10.1 60 60 W 3 6 30.15 1021 10 16 N/A
9:15 am 09:15 Sunny with Heavy Rain 66 19.1 51 10.3 57 57 W 9 15 30.15 1021 7 11 N/A
9:35 am 09:35 Sunny with Heavy Rain 69 20.8 53 11.4 55 55 W 8 13 30.15 1021 10 16 N/A
9:55 am 09:55 Sunny 69 20.8 50 10 50 50 W 10 17 30.15 1021 10 16 N/A
10:15 am 10:15 Partly Cloudy 69 20.8 49 9.7 49 49 W 9 15 30.15 1021 10 16 N/A
10:35 am 10:35 Partly Cloudy 69 20.8 48 8.8 46 46 W 13 20 30.15 1021 10 16 N/A
10:55 am 10:55 Partly Cloudy 69 20.8 46 7.8 43 43 W 10 17 30.15 1021 10 16 N/A
11:15 am 11:15 Partly Cloudy 70 20.9 44 6.8 40 40 W 10 17 30.15 1021 10 16 N/A
11:35 am 11:35 Partly Cloudy 71 21.9 43 6.1 36 36 WNW 12 19 30.15 1021 10 16 N/A
11:55 am 11:55 Partly Cloudy 73 22.8 43 6.1 34 34 W 15 24 30.15 1021 10 16 N/A
12:15 pm 12:15 Partly Cloudy 70 21.2 40 4.5 34 34 WNW 12 19 30.12 1020 10 16 N/A
12:35 pm 12:35 Partly Cloudy 74 23.6 44 6.6 34 34 W 12 19 30.15 1021 10 16 N/A
12:55 pm 12:55 Mostly Cloudy 74 23.5 42 5.8 32 32 W 6 9 30.12 1020 10 16 N/A
1:15 pm 13:15 Mostly Cloudy 73 23 42 5.8 33 33 W 8 13 30.12 1020 10 16 N/A
1:35 pm 13:35 Partly Cloudy 74 23.6 38 3.6 27 27 W 12 19 30.12 1020 10 16 N/A
1:55 pm 13:55 Partly Cloudy 74 23.6 38 3.1 26 26 WNW 9 15 30.12 1020 10 16 N/A
2:15 pm 14:15 Mostly Cloudy 74 23.6 37 2.8 26 26 W 10 17 30.12 1020 10 16 N/A
2:35 pm 14:35 Partly Cloudy 74 23.6 37 2.8 26 26 WSW 15 24 30.12 1020 10 16 N/A
2:55 pm 14:55 Mostly Cloudy 74 23.6 41 5.2 30 30 W 9 15 30.12 1020 10 16 N/A
3:15 pm 15:15 Mostly Cloudy 74 23.6 39 4.1 28 28 W 8 13 30.09 1019 10 16 N/A
3:35 pm 15:35 Mostly Cloudy 74 23.6 39 3.8 28 28 W 9 15 30.09 1019 10 16 N/A
3:55 pm 15:55 Sunny 74 23.6 38 3.5 27 27 WSW 8 13 30.09 1019 10 16 N/A
4:15 pm 16:15 Partly Cloudy 76 24.7 39 3.7 26 26 WSW 12 19 30.09 1019 10 16 N/A
4:35 pm 16:35 Mostly Cloudy 74 23.6 38 3.6 27 27 W 9 15 30.09 1019 10 16 N/A
4:55 pm 16:55 Cloudy 74 23.6 43 6 32 32 SW 13 20 30.09 1019 10 16 N/A
5:15 pm 17:15 Cloudy 74 23.6 44 6.7 34 34 W 8 13 30.06 1018 10 16 N/A
5:35 pm 17:35 Mostly Cloudy 74 23.6 43 5.9 32 32 SW 13 20 30.06 1018 10 16 N/A
5:55 pm 17:55 Partly Cloudy 74 23.6 46 7.8 36 36 SW 10 17 30.06 1018 10 16 N/A
6:15 pm 18:15 Sunny 73 22.6 47 8.4 40 40 S 9 15 30.06 1018 10 16 N/A
6:35 pm 18:35 Sunny 72 22.3 48 8.9 42 42 SW 9 15 30.06 1018 10 16 N/A
6:55 pm 18:55 Partly Cloudy 72 22.3 48 9 43 43 WSW 9 15 30.03 1017 10 16 N/A
7:15 pm 19:15 Mostly Cloudy 71 21.7 45 7.2 39 39 WSW 8 13 30.03 1017 10 16 N/A
7:35 pm 19:35 Mostly Cloudy 72 22.3 46 7.7 39 39 W 8 13 30.03 1017 10 16 N/A
7:55 pm 19:55 Partly Cloudy 73 22.6 45 7.2 37 37 W 8 13 30.03 1017 10 16 N/A
8:15 pm 20:15 Partly Cloudy 69 20.8 43 5.9 38 38 WSW 9 15 30.03 1017 10 16 N/A
8:35 pm 20:35 Partly Cloudy 69 20.8 42 5.6 37 37 W 8 13 30.03 1017 10 16 N/A
8:55 pm 20:55 Sunny 69 20.8 44 6.7 40 40 WSW 9 15 30.03 1017 10 16 N/A
9:15 pm 21:15 Clear 69 20.8 46 7.5 42 42 WSW 7 11 30.03 1017 10 16 N/A
9:35 pm 21:35 Clear 67 19.5 46 7.6 46 46 WSW 5 7 30.03 1017 10 16 N/A
9:55 pm 21:55 Clear 64 17.6 46 8 54 54 WSW 7 11 30.03 1017 10 16 N/A
10:15 pm 22:15 Clear 64 18 46 7.8 52 52 WSW 7 11 30.03 1017 10 16 N/A
10:35 pm 22:35 Clear 62 16.8 47 8.3 57 57 NNW 9 15 30.06 1018 10 16 N/A
10:55 pm 22:55 Partly Cloudy 62 16.4 46 8 58 58 NNW 5 7 30.06 1018 10 16 N/A
11:15 pm 23:15 Clear 61 16 46 8 59 59 NW 3 6 30.09 1019 10 16 N/A
11:35 pm 23:35 Clear 60 15.7 47 8.1 61 61 N N/A 30.09 1019 10 16 N/A
11:55 pm 23:55 Partly Cloudy 60 15.3 46 8 62 62 N N/A 30.09 1019 10 16 N/A

Powered by AerisWeather